           7 14  13 55.12  -15 50.4   4.682  5.662    11.6 / 257  16.4   17 1.00

           8 14  13 54.33  -15 53.1   4.683  5.659    11.6 / 257  16.4   29  .99

           9 14  13 53.55  -15 55.8   4.684  5.656    11.5 / 257  16.4   42  .95

          10 14  13 52.77  -15 58.4   4.686  5.652    11.4 / 256  16.4   55  .90

          11 14  13 52.00  -16 01.1   4.688  5.649    11.4 / 256  16.4   67  .84

          12 14  13 51.23  -16 03.8   4.690  5.646    11.3 / 256  16.4   79  .76

          13 14  13 50.47  -16 06.5   4.693  5.643    11.2 / 256  16.4   91  .67

          14 14  13 49.72  -16 09.1   4.696  5.640    11.1 / 256  16.4  103  .58

          15 14  13 48.97  -16 11.8   4.699  5.637    11.0 / 256  16.4  115  .48

          16 14  13 48.23  -16 14.5   4.702  5.633    10.9 / 256  16.4  127  .39

          17 14  13 47.49  -16 17.1   4.706  5.630    10.8 / 256  16.4  139  .30

          18 14  13 46.76  -16 19.8   4.710  5.627    10.7 / 255  16.4  150  .21

          19 14  13 46.04  -16 22.5   4.715  5.624    10.6 / 255  16.4  162  .14

          20 14  13 45.33  -16 25.2   4.719  5.621    10.5 / 255  16.4  170  .08

          21 14  13 44.62  -16 27.9   4.724  5.618    10.4 / 255  16.4  165  .03

          22 14  13 43.93  -16 30.6   4.730  5.615    10.3 / 255  16.4  154  .00

          23 14  13 43.24  -16 33.3   4.735  5.612    10.1 / 254  16.4  141  .00

          24 14  13 42.56  -16 36.0   4.741  5.609    10.0 / 254  16.4  127  .03

          25 14  13 41.89  -16 38.7   4.747  5.606     9.9 / 254  16.4  113  .08

          26 14  13 41.23  -16 41.5   4.753  5.602     9.7 / 254  16.4   99  .15

          27 14  13 40.58  -16 44.2   4.760  5.599     9.6 / 253  16.4   84  .24

          28 14  13 39.94  -16 47.0   4.767  5.596     9.5 / 253  16.4   70  .35

          29 14  13 39.31  -16 49.8   4.774  5.593     9.3 / 252  16.4   56  .46

          30 14  13 38.69  -16 52.6   4.781  5.590     9.2 / 252  16.4   43  .58

          31 14  13 38.08  -16 55.4   4.789  5.587     9.0 / 252  16.4   29  .68

     June  1 14  13 37.49  -16 58.2   4.797  5.584     8.9 / 251  16.4   17  .78

NAKANO

         **** Don't distribute anyone except personal use only ****

                (C) Copyright 2001 OAA/ComputingSection

write mail from CFAD0::NAKANO on 2001-04-20 04:54:50(JST).

 



    C/2001 C1 (LINEAR) 

T 2002 Mar. 28.28208 TT                                 Nakano

q   5.1056140            (2000.0)            P               Q

                   Peri.  219.92557     -0.51004417     +0.68659230

                   Node    33.71679     -0.32802915     +0.40157083

e   1.0            Incl.   68.97069     -0.79514264     -0.60607911

From 89 observations 2001 Feb. 1-Apr. 4.



NAKANO

         **** Don't distribute anyone except personal use only ****

                (C) Copyright 2001 OAA/ComputingSection

write mail from CFAD0::NAKANO on 2001-04-07 01:11:26(JST).

 



    C/2001 C1 (LINEAR) 

T 2002 Mar. 28.51173 TT                                 Nakano

q   5.1037698            (2000.0)            P               Q

                   Peri.  219.96573     -0.50959547     +0.68692611

                   Node    33.71577     -0.32770338     +0.40183209

e   1.0            Incl.   68.97442     -0.79556455     -0.60552745

From 58 observations 2001 Feb. 1-26.



NAKANO

         **** Don't distribute anyone except personal use only ****

                (C) Copyright 2001 OAA/ComputingSection

write mail from CFAD0::NAKANO on 2001-03-04 02:02:19(JST).

 





    C/2001 C1 (LINEAR) 

T 2002 Apr. 6.17614 TT                                  Nakano

q   5.0224797            (2000.0)            P               Q

                   Peri.  221.62290     -0.49066965     +0.70076843

                   Node    33.66845     -0.31450679     +0.41181124

e   1.0            Incl.   69.08212     -0.81260616     -0.58252478

From 40 observations 2001 Feb. 1-16.

 

Date/        TT  R.A.(2000) Decl.     Delta   r     Daily motion  Mag.  Moon Age

              h    h  m       。  ,                      ,  / PA 。  m1      。

2001 Feb. 20 18  14 40.48  -11 38.3   5.477  5.901     5.0 / 215  17.4   83  .06

          21 18  14 40.28  -11 42.4   5.458  5.897     5.1 / 217  17.4   95  .02

          22 18  14 40.08  -11 46.5   5.438  5.893     5.2 / 219  17.4  106  .00

          23 18  14 39.86  -11 50.5   5.419  5.889     5.3 / 220  17.4  118  .00

          24 18  14 39.62  -11 54.6   5.399  5.885     5.4 / 222  17.4  131  .02

          25 18  14 39.38  -11 58.6   5.380  5.881     5.5 / 224  17.3  143  .06

          26 18  14 39.12  -12 02.6   5.361  5.877     5.6 / 225  17.3  155  .11

          27 18  14 38.84  -12 06.5   5.343  5.874     5.8 / 227  17.3  168  .18

          28 18  14 38.56  -12 10.5   5.324  5.870     5.9 / 228  17.3  179  .26

     Mar.  1 18  14 38.26  -12 14.4   5.305  5.866     6.0 / 230  17.3  166  .36

           2 18  14 37.94  -12 18.3   5.287  5.862     6.2 / 231  17.3  153  .46

           3 18  14 37.62  -12 22.2   5.269  5.858     6.3 / 232  17.3  139  .57

           4 18  14 37.28  -12 26.1   5.251  5.855     6.4 / 233  17.3  125  .68

           5 18  14 36.92  -12 29.9   5.233  5.851     6.6 / 234  17.3  111  .78

           6 18  14 36.56  -12 33.8   5.215  5.847     6.7 / 236  17.3   96  .87

           7 18  14 36.18  -12 37.6   5.198  5.843     6.9 / 237  17.2   81  .94

           8 18  14 35.79  -12 41.4   5.181  5.839     7.0 / 238  17.2   66  .98

           9 18  14 35.38  -12 45.1   5.164  5.836     7.2 / 239  17.2   51 1.00

          10 18  14 34.96  -12 48.9   5.147  5.832     7.3 / 239  17.2   36  .98

          11 18  14 34.53  -12 52.6   5.130  5.828     7.5 / 240  17.2   22  .94

          12 18  14 34.09  -12 56.3   5.113  5.824     7.6 / 241  17.2    8  .88

          13 18  14 33.63  -13 00.0   5.097  5.821     7.8 / 242  17.2    7  .80

          14 18  14 33.16  -13 03.6   5.081  5.817     7.9 / 243  17.2   20  .71

          15 18  14 32.68  -13 07.3   5.065  5.813     8.1 / 243  17.2   33  .61

          16 18  14 32.18  -13 10.9   5.050  5.810     8.2 / 244  17.2   45  .51

          17 18  14 31.67  -13 14.5   5.034  5.806     8.4 / 245  17.1   57  .42

          18 18  14 31.15  -13 18.1   5.019  5.802     8.6 / 245  17.1   69  .32

          19 18  14 30.62  -13 21.6   5.004  5.798     8.7 / 246  17.1   81  .24

          20 18  14 30.08  -13 25.2   4.990  5.795     8.9 / 247  17.1   93  .16

          21 18  14 29.52  -13 28.7   4.975  5.791     9.0 / 247  17.1  105  .10

          22 18  14 28.95  -13 32.2   4.961  5.787     9.1 / 248  17.1  117  .05

          23 18  14 28.37  -13 35.6   4.947  5.784     9.3 / 248  17.1  129  .02

          24 18  14 27.78  -13 39.1   4.934  5.780     9.4 / 249  17.1  141  .00

          25 18  14 27.17  -13 42.5   4.921  5.776     9.6 / 249  17.1  154  .01

          26 18  14 26.56  -13 45.9   4.908  5.773     9.7 / 250  17.1  166  .03

          27 18  14 25.93  -13 49.3   4.895  5.769     9.9 / 250  17.1  176  .08

          28 18  14 25.30  -13 52.6   4.882  5.765    10.0 / 250  17.1  166  .14

          29 18  14 24.65  -13 56.0   4.870  5.762    10.1 / 251  17.0  153  .22

          30 18  14 24.00  -13 59.3   4.858  5.758    10.2 / 251  17.0  140  .32

          31 18  14 23.33  -14 02.6   4.847  5.755    10.4 / 252  17.0  126  .42

     Apr.  1 18  14 22.65  -14 05.9   4.836  5.751    10.5 / 252  17.0  112  .53

NAKANO

         **** Don't distribute anyone except personal use only ****

                (C) Copyright 2001 OAA/ComputingSection

write mail from CFAD0::NAKANO on 2001-02-21 03:31:26(JST).





 我国からの観測は,まだ,報告されていません.



    C/2001 C1 (LINEAR) 

T 2002 Mar. 28.41885 TT                                 Nakano

q   5.1097816            (2000.0)            P               Q

                   Peri.  219.89119     -0.51011605     +0.68654775

                   Node    33.72640     -0.32873880     +0.40101267

e   1.0            Incl.   68.92992     -0.79480338     -0.60649900

From 38 observations 2001 Feb. 1-5.



 

Date/        TT  R.A.(2000) Decl.     Delta   r     Daily motion  Mag.  Moon Age

              h    h  m       。  ,                      ,  / PA 。  m1      。

2001 Feb. 10 18  14 41.72  -10 56.2   5.706  5.967     4.4 / 193  17.0   45  .91

          11 18  14 41.65  -11 00.5   5.686  5.963     4.4 / 195  17.0   30  .83

          12 18  14 41.57  -11 04.7   5.666  5.960     4.5 / 198  17.0   16  .74

          13 18  14 41.48  -11 09.0   5.645  5.956     4.5 / 200  17.0    3  .64

          14 18  14 41.37  -11 13.2   5.625  5.952     4.6 / 202  17.0   10  .54

          15 18  14 41.26  -11 17.4   5.605  5.948     4.6 / 204  17.0   23  .44

          16 18  14 41.13  -11 21.6   5.585  5.945     4.7 / 206  17.0   35  .34

          17 18  14 40.99  -11 25.8   5.566  5.941     4.7 / 209  17.0   47  .25

          18 18  14 40.83  -11 30.0   5.546  5.937     4.8 / 211  17.0   59  .18

          19 18  14 40.67  -11 34.1   5.526  5.933     4.9 / 213  16.9   71  .11

          20 18  14 40.49  -11 38.2   5.507  5.930     5.0 / 215  16.9   83  .06

          21 18  14 40.29  -11 42.3   5.487  5.926     5.1 / 217  16.9   95  .02

          22 18  14 40.09  -11 46.4   5.468  5.922     5.2 / 218  16.9  106  .00

          23 18  14 39.87  -11 50.4   5.449  5.918     5.3 / 220  16.9  118  .00

          24 18  14 39.64  -11 54.5   5.430  5.915     5.4 / 222  16.9  131  .02

          25 18  14 39.39  -11 58.5   5.411  5.911     5.5 / 224  16.9  143  .06

          26 18  14 39.13  -12 02.4   5.392  5.907     5.6 / 225  16.9  155  .11

          27 18  14 38.86  -12 06.4   5.373  5.904     5.7 / 227  16.9  168  .18

          28 18  14 38.58  -12 10.4   5.355  5.900     5.9 / 228  16.9  179  .26

     Mar.  1 18  14 38.28  -12 14.3   5.336  5.896     6.0 / 229  16.8  166  .36

           2 18  14 37.97  -12 18.2   5.318  5.893     6.1 / 231  16.8  153  .46

